User: anonymous   Login
Location: Ferchesar
(52.6477°N, 12.4298°E)
Time: 08:31:14
(UTC+01:00)
Language:

Transit 2A Rocket - Orbit

View from above orbital plane
View from above orbital plane
View from above satellite
View from above satellite

Ground track
Ground track

The orbit data is extracted from the following two-line orbital elements,

1 00047U 60007C   21340.89554743  .00000008  00000-0  26797-4 0  9992
2 00047  66.6640 157.8451 0234692 270.0528  87.3686 14.42200004212170
Epoch (UTC): 06 December 2021 21:29:35
Eccentricity: 0.0234692
inclination: 66.6640°
perigee height: 584 km
apogee height: 918 km
right ascension of ascending node: 157.8451°
argument of perigee: 270.0528°
revolutions per day: 14.42200004
mean anomaly at epoch: 87.3686°
orbit number at epoch: 21217

The dashed part of the orbit path shows where the satellite is in the earth's shadow,  

DLR